Location: *
(43.9905°S, 176.4941°W)
Time: 16:46:57
(UTC+00:00)

Cosmos 1818 - Pass Details

Date: 08 December 2019
Orbit: 777 x 797 km, 65.0° (Epoch: 23 January)

Event Time Altitude Azimuth Distance (km) Brightness Sun altitude
Rises 09:57:34 0° 214° (SW) 3,294 8.3 -19.5°
Reaches altitude 10° 10:00:00 10° 212° (SSW) 2,361 7.2 -19.6°
Maximum altitude 10:05:26 76° 126° (SE) 818 3.6 -20.0°
Enters shadow 10:07:33 38° 47° (NE) 1,187 4.0 -20.2°
